Stations météo

réclame
Mon MeteoGroup
Tarbes/Ossun, France (7621): Température de l'air & dewpoint: 16.10.2019 11:00:00 - 22.10.2019 11:00:00 (CEST)Tarbes/Ossun, France (7621): Température de l'air 5cm: 16.10.2019 11:00:00 - 22.10.2019 11:00:00 (CEST)Tarbes/Ossun, France (7621): Température de l'air -20cm & Température de l'air -100cm: 16.10.2019 11:00:00 - 22.10.2019 11:00:00 (CEST)Tarbes/Ossun, France (7621): Vitesse du vent & gusts: 16.10.2019 11:00:00 - 22.10.2019 11:00:00 (CEST)Tarbes/Ossun, France (7621): Direction du vent: 16.10.2019 11:00:00 - 22.10.2019 11:00:00 (CEST)Tarbes/Ossun, France (7621): reduced air pressure: 16.10.2019 11:00:00 - 22.10.2019 11:00:00 (CEST)Tarbes/Ossun, France (7621): visibility: 16.10.2019 11:00:00 - 22.10.2019 11:00:00 (CEST)Tarbes/Ossun, France (7621): Ensoleillement: 16.10.2019 11:00:00 - 22.10.2019 11:00:00 (CEST)Tarbes/Ossun, France (7621): Quantités de précipitations: 16.10.2019 11:00:00 - 22.10.2019 11:00:00 (CEST)
Date & Time tt [°C] td [°C] tt 5cm [°C] tt -20cm [°C] tt -100cm [°C] ff [km/h] ff [knt] fx [km/h] fx [knt] dd ppp [hPa] vv [km] sd [min] rr [mm]
22.10.2019 11:00:00 9,6 8,8 9,8 14,5 16,6 5 3 9 5 ENE 1019,7 19 0 0,2
22.10.2019 10:00:00 8,7 8,2 8,4 14,6 16,7 5 3 10 5 SE 1020,6 29 0 0,0
22.10.2019 09:00:00 8,0 7,6 7,4 14,7 16,7 5 3 8 4 S 1020,3 32 0 0,0
22.10.2019 08:00:00 7,9 7,6 6,2 14,8 16,7 8 4 11 6 SE 1020,5 29 0 0,0
22.10.2019 07:00:00 7,1 6,8 6,3 14,8 16,7 2 1 8 5 WNW 1020,3 16 0 0,0
22.10.2019 06:00:00 7,5 7,4 6,5 15,0 16,7 4 2 9 5 SSE 1021,2 23 0 0,0
22.10.2019 05:00:00 8,0 7,9 6,0 15,1 16,7 5 3 6 4 ESE 1020,6 21 0 0,0
22.10.2019 04:00:00 7,1 6,8 5,4 15,1 16,7 4 2 11 6 SSE 1020,9 18 0 0,0
22.10.2019 03:00:00 8,1 8,0 5,1 15,2 16,7 3 2 10 5 SSE 1021,2 17 0 0,0
22.10.2019 02:00:00 6,9 6,5 - - - 5 3 9 5 S 1022,0 24 - -
22.10.2019 01:00:00 9,1 8,6 5,5 15,3 16,7 9 5 12 6 SE 1021,4 22 0 0,0
22.10.2019 00:00:00 8,5 7,7 6,5 15,4 16,7 9 5 13 7 S 1021,5 30 0 0,0
21.10.2019 23:00:00 9,9 8,7 6,6 15,4 16,7 5 3 12 6 S 1021,3 32 0 0,0
21.10.2019 22:00:00 11,1 9,7 10,1 15,4 16,8 4 2 8 4 SW 1020,9 35 0 0,0
21.10.2019 21:00:00 11,8 10,0 11,5 15,4 16,7 7 4 10 5 SW 1020,6 39 0 0,0
21.10.2019 20:00:00 12,6 9,8 12,0 15,3 16,7 4 2 8 5 SSW 1020,1 54 0 0,0
21.10.2019 19:00:00 13,3 9,5 12,9 15,3 16,7 0 0 12 7 N 1019,5 19 0 0,0
21.10.2019 18:00:00 14,2 9,0 15,6 15,2 16,7 5 3 13 7 SW 1018,9 59 0 0,0
21.10.2019 17:00:00 14,5 7,3 16,2 15,1 16,7 8 4 15 8 E 1018,7 50 0 0,0
21.10.2019 16:00:00 14,8 7,8 18,8 14,9 16,7 8 4 16 9 N 1018,4 57 0 0,0
21.10.2019 15:00:00 14,9 6,7 21,1 14,8 16,7 6 4 19 11 E 1018,6 60 13 0,0
21.10.2019 14:00:00 14,9 7,9 19,8 14,8 16,8 6 4 14 8 N 1018,6 24 30 0,0
21.10.2019 13:00:00 13,8 7,6 18,5 14,8 16,8 7 4 12 7 N 1019,4 51 19 0,0
21.10.2019 12:00:00 13,0 7,9 14,2 14,8 16,8 5 3 10 5 NNE 1019,4 55 0 0,0
21.10.2019 11:00:00 11,9 8,9 12,0 14,9 16,7 3 1 10 5 WSW 1019,2 60 0 0,0
21.10.2019 10:00:00 10,5 9,3 9,8 14,9 16,7 8 4 11 6 S 1018,9 56 0 0,0
21.10.2019 09:00:00 9,7 8,9 9,3 15,0 16,8 7 4 12 6 SSE 1018,7 46 0 0,0
21.10.2019 08:00:00 9,3 8,8 9,3 15,1 16,8 5 3 10 5 SSW 1018,2 57 0 0,0
21.10.2019 07:00:00 9,5 8,9 9,3 15,1 16,7 8 4 11 6 SSE 1017,9 54 0 0,0
21.10.2019 06:00:00 9,7 9,1 9,4 15,2 16,8 8 4 14 8 SE 1017,5 60 0 0,0
21.10.2019 05:00:00 9,5 9,2 9,4 15,3 16,8 10 6 13 7 SSW 1017,1 60 0 0,0
21.10.2019 04:00:00 9,4 9,3 6,8 15,4 16,8 9 5 14 7 SW 1017,1 14 0 0,0
21.10.2019 03:00:00 8,1 8,0 5,6 15,5 16,8 7 4 11 6 S 1016,9 53 0 0,0
21.10.2019 02:00:00 8,7 8,1 7,2 15,5 16,8 6 4 13 7 SSW 1016,2 60 0 0,0
21.10.2019 01:00:00 9,5 8,7 8,2 15,6 16,8 5 3 16 9 S 1015,6 60 0 0,0
21.10.2019 00:00:00 9,9 9,1 9,3 15,6 16,8 9 5 24 13 SW 1015,2 60 0 0,6
20.10.2019 23:00:00 10,4 9,5 10,0 15,7 16,8 12 6 26 14 WSW 1014,9 7 0 1,0
20.10.2019 22:00:00 10,8 9,6 - - - 22 12 35 19 W 1014,1 55 - 0,2
20.10.2019 21:00:00 11,1 10,0 10,4 15,7 16,8 12 7 33 18 W 1013,1 13 0 0,2
20.10.2019 20:00:00 11,6 9,8 10,6 15,7 16,8 20 11 37 20 WSW 1011,8 49 0 0,0
20.10.2019 19:00:00 12,3 9,1 11,7 15,7 16,8 18 10 38 20 W 1010,3 57 0 0,0
20.10.2019 18:00:00 13,6 9,4 14,2 15,7 16,8 21 12 39 21 W 1008,6 55 20 0,0
20.10.2019 17:00:00 14,3 9,9 13,4 15,6 16,8 23 12 44 24 W 1008,1 43 13 0,0
20.10.2019 16:00:00 14,3 11,1 12,7 15,5 16,8 24 13 42 23 WNW 1007,3 51 3 0,4
20.10.2019 15:00:00 16,4 10,7 18,6 15,4 16,8 21 11 37 20 W 1005,9 53 1 0,0
20.10.2019 14:00:00 16,6 10,7 18,9 15,4 16,8 18 10 26 14 W 1005,3 46 25 0,0
20.10.2019 13:00:00 16,8 10,6 18,1 15,4 16,8 11 6 25 14 WNW 1005,7 59 39 0,0
20.10.2019 12:00:00 15,5 11,9 14,0 15,4 16,9 7 4 19 11 SW 1004,8 47 4 0,0
20.10.2019 11:00:00 13,9 11,6 13,9 15,5 16,9 9 5 22 12 SW 1004,8 52 0 0,0
20.10.2019 10:00:00 13,4 12,8 12,2 15,6 16,9 7 4 31 17 WNW 1004,1 27 0 0,0
20.10.2019 09:00:00 12,6 12,3 8,3 15,6 16,9 12 6 23 12 W 1003,6 46 1 0,0
20.10.2019 08:00:00 11,9 11,3 8,2 15,6 16,8 11 6 18 10 SSE 1001,6 45 0 0,0
20.10.2019 07:00:00 12,0 11,1 9,8 15,7 16,8 6 3 21 11 SSW 1001,6 40 0 0,2
20.10.2019 06:00:00 12,7 12,5 10,4 15,7 16,9 6 3 15 8 SSE 1002,1 17 0 0,2
20.10.2019 05:00:00 12,5 12,2 - - - 5 3 16 9 S 1001,0 27 - -
20.10.2019 04:00:00 13,2 12,6 12,3 15,9 16,9 6 3 19 10 SE 1001,6 19 0 0,4
20.10.2019 03:00:00 13,2 12,9 11,9 15,9 16,9 6 4 22 12 S 1002,7 12 0 0,6
20.10.2019 02:00:00 12,3 12,1 10,3 15,9 16,9 10 6 15 8 SSE 1002,7 14 0 0,0
20.10.2019 01:00:00 12,3 12,1 10,2 16,0 16,9 6 3 15 8 SSE 1002,4 12 0 0,0
20.10.2019 00:00:00 12,4 12,4 10,4 16,1 16,9 8 4 12 6 SSE 1003,1 10 0 0,0
19.10.2019 23:00:00 11,4 11,2 8,9 16,1 16,9 5 3 10 6 S 1003,5 8 0 0,0
19.10.2019 22:00:00 11,3 11,0 8,7 16,1 16,9 5 3 11 6 SSW 1003,7 9 0 0,0
19.10.2019 21:00:00 12,4 12,4 9,4 16,1 16,9 5 3 15 8 S 1004,1 11 0 0,0
19.10.2019 20:00:00 12,7 11,8 10,7 16,1 16,9 6 4 12 7 S 1004,2 12 0 0,0
19.10.2019 19:00:00 16,5 13,6 13,6 15,9 16,9 3 2 11 6 NNE 1003,8 27 17 0,0
19.10.2019 18:00:00 17,7 13,0 17,5 15,9 16,9 7 4 15 8 NE 1003,7 44 35 0,0
19.10.2019 17:00:00 18,1 13,2 17,2 15,7 16,9 7 4 16 8 NE 1004,1 38 18 0,4
19.10.2019 16:00:00 17,7 11,7 - - - 8 4 22 12 NE 1004,5 35 - 0,0
19.10.2019 15:00:00 18,6 11,4 23,6 15,5 16,9 10 6 22 12 NE 1004,8 40 11 0,0
19.10.2019 14:00:00 18,7 12,0 23,3 15,4 16,9 8 5 21 12 E 1005,4 46 24 0,0
19.10.2019 13:00:00 16,9 13,6 18,3 15,4 16,9 8 4 14 8 SE 1006,6 51 6 0,0
19.10.2019 12:00:00 14,6 13,8 15,6 15,4 16,9 2 1 10 5 NNW 1007,6 20 1 0,0
19.10.2019 11:00:00 13,2 13,0 13,2 15,5 16,9 2 1 10 5 N 1007,6 27 0 0,2
19.10.2019 10:00:00 11,9 11,7 11,6 15,5 16,9 3 1 6 3 S 1008,2 18 0 0,2
19.10.2019 09:00:00 11,4 11,2 10,7 15,6 17,0 4 2 12 7 ESE 1008,5 30 0 0,0
19.10.2019 08:00:00 11,1 10,9 10,5 15,6 16,9 5 3 11 6 S 1008,7 25 0 0,0
19.10.2019 07:00:00 11,1 10,9 10,6 15,7 17,0 3 2 14 8 ENE 1009,6 18 0 0,0
19.10.2019 06:00:00 11,7 11,7 11,7 15,7 16,9 6 4 12 6 ESE 1009,7 1,4 0 0,0
19.10.2019 05:00:00 11,9 11,9 8,9 15,8 17,0 8 4 11 6 WSW 1010,0 0,9 0 0,0
19.10.2019 04:00:00 11,1 10,9 10,1 15,9 17,0 3 2 15 8 SW 1009,6 8 0 0,2
19.10.2019 03:00:00 11,1 11,1 9,3 15,9 16,9 6 3 11 6 S 1009,9 8 0 0,0
19.10.2019 02:00:00 11,1 10,9 9,2 16,0 17,0 2 1 13 7 N 1009,9 0,6 0 0,0
19.10.2019 01:00:00 12,4 12,2 11,7 16,0 17,0 9 5 19 10 NNE 1009,7 4,5 0 0,2
19.10.2019 00:00:00 12,4 12,2 10,4 16,0 17,0 5 3 13 7 E 1010,8 5 0 0,0
18.10.2019 23:00:00 12,7 12,7 10,1 16,0 17,0 6 3 9 5 SE 1011,6 7 0 0,0
18.10.2019 22:00:00 12,6 12,3 11,3 16,0 17,0 6 4 10 6 N 1012,4 12 0 0,0
18.10.2019 21:00:00 13,3 12,7 12,0 16,0 17,0 5 3 15 8 NNE 1012,5 18 0 0,0
18.10.2019 20:00:00 14,1 13,1 13,2 16,0 17,0 9 5 19 11 ESE 1012,7 18 0 0,0
18.10.2019 19:00:00 14,5 13,0 14,7 16,0 17,0 4 2 12 6 ENE 1013,7 34 0 0,0
18.10.2019 18:00:00 15,1 13,3 15,9 15,9 17,0 6 4 11 6 N 1014,6 32 0 0,0
18.10.2019 17:00:00 15,2 13,0 17,6 15,8 17,0 2 1 10 5 N 1014,9 56 0 0,0
18.10.2019 16:00:00 15,0 13,2 17,2 15,7 17,0 5 3 14 7 NNE 1015,1 17 0 0,0
18.10.2019 15:00:00 14,2 13,4 15,7 15,7 17,0 10 5 16 9 NNE 1015,5 9 0 0,2
18.10.2019 14:00:00 14,2 13,6 16,3 15,7 17,0 11 6 14 7 NNW 1016,2 3,0 0 0,6
18.10.2019 13:00:00 15,0 13,0 17,5 15,7 17,0 6 4 16 8 NNW 1017,0 17 0 0,0
18.10.2019 12:00:00 15,2 12,5 14,9 15,7 17,0 2 1 10 6 N 1016,9 50 0 0,0
18.10.2019 11:00:00 14,3 12,5 14,3 15,7 17,0 8 5 13 7 S 1017,1 42 0 0,0
18.10.2019 10:00:00 13,9 12,8 13,5 15,7 17,0 10 5 18 10 WSW 1016,9 37 0 0,0
18.10.2019 09:00:00 13,4 12,8 12,3 15,8 17,0 5 3 9 5 WSW 1016,1 36 0 0,0
18.10.2019 08:00:00 13,1 12,9 10,5 15,9 17,0 7 4 13 7 W 1015,5 25 0 0,0
18.10.2019 07:00:00 13,2 12,7 12,3 15,9 17,0 8 4 21 11 SE 1014,7 20 0 0,4
18.10.2019 06:00:00 13,1 12,3 12,2 16,0 17,0 5 3 15 8 SSE 1014,8 27 0 0,0
18.10.2019 05:00:00 13,0 12,5 11,2 16,1 17,0 9 5 27 15 SW 1014,4 21 0 0,0
18.10.2019 04:00:00 12,9 11,5 8,6 16,2 17,1 12 7 23 12 WSW 1014,1 26 0 0,0
18.10.2019 03:00:00 11,1 8,8 8,5 16,3 17,1 5 3 13 7 SSW 1014,5 60 0 0,0
18.10.2019 02:00:00 10,9 9,0 8,6 16,4 17,1 9 5 15 8 S 1014,5 58 0 0,0
18.10.2019 01:00:00 12,3 9,7 7,4 16,4 17,1 9 5 16 9 S 1014,9 57 0 0,0
18.10.2019 00:00:00 11,1 9,4 7,3 16,5 17,1 8 4 17 9 S 1015,6 54 0 0,0
17.10.2019 23:00:00 12,7 10,9 8,4 16,5 17,1 6 3 12 7 SSE 1015,3 51 0 0,0
17.10.2019 22:00:00 12,7 10,9 9,4 16,5 17,1 6 3 16 8 SE 1015,4 50 0 0,0
17.10.2019 21:00:00 14,5 12,0 10,5 16,4 17,1 9 5 14 8 SSE 1015,4 48 0 0,0
17.10.2019 20:00:00 14,5 12,0 11,8 16,3 17,1 7 4 11 6 S 1015,5 20 0 0,0
17.10.2019 19:00:00 19,0 11,8 16,1 16,1 17,1 6 3 12 7 NE 1014,3 57 42 0,0
17.10.2019 18:00:00 21,3 11,9 21,1 15,9 17,1 7 4 16 9 N 1013,5 47 60 0,0
17.10.2019 17:00:00 21,8 11,8 27,6 15,8 17,1 5 3 17 9 NNW 1013,4 17 60 0,0
17.10.2019 16:00:00 21,0 11,3 35,3 15,6 17,1 8 5 17 9 N 1013,8 37 60 0,0
17.10.2019 15:00:00 20,4 12,1 32,7 15,5 17,1 8 4 16 9 ENE 1014,0 35 60 0,0
17.10.2019 14:00:00 19,4 13,1 22,7 15,4 17,1 8 4 17 9 ESE 1014,5 29 25 0,0
17.10.2019 13:00:00 17,6 12,7 20,9 15,4 17,1 8 5 22 12 E 1014,8 53 19 0,0
17.10.2019 12:00:00 15,8 13,5 15,9 15,4 17,1 9 5 17 9 E 1014,9 32 12 0,0
17.10.2019 11:00:00 14,0 12,4 14,3 15,4 17,1 9 5 18 10 ESE 1015,2 41 0 1,0
17.10.2019 10:00:00 13,8 11,8 12,5 15,4 17,1 6 3 22 12 SSE 1015,8 13 0 0,4
17.10.2019 09:00:00 14,4 9,8 12,0 15,5 17,2 10 5 18 10 W 1015,3 55 3 0,0
17.10.2019 08:00:00 13,3 9,9 12,0 15,5 17,2 2 1 16 9 NW 1014,0 58 0 0,0
17.10.2019 07:00:00 13,7 9,5 11,3 15,6 17,2 6 4 11 6 S 1013,2 60 0 0,0
17.10.2019 06:00:00 12,3 9,1 8,7 15,7 17,2 6 3 14 7 SW 1013,2 60 0 0,0
17.10.2019 05:00:00 11,4 8,1 8,3 15,7 17,2 9 5 19 10 SSE 1013,5 60 0 0,0
17.10.2019 04:00:00 11,4 8,4 - - - 11 6 18 10 SSE 1013,9 55 - 0,0
17.10.2019 03:00:00 11,6 7,9 8,7 15,9 17,2 8 4 16 9 S 1014,5 60 0 0,0
17.10.2019 02:00:00 12,0 8,7 8,5 16,0 17,2 10 6 15 8 SSE 1014,5 59 0 0,0
17.10.2019 01:00:00 12,3 8,4 7,8 16,1 17,2 10 6 14 8 S 1014,9 60 0 0,0
17.10.2019 00:00:00 11,5 8,4 7,8 16,1 17,2 9 5 16 9 SSE 1015,3 49 0 0,0
16.10.2019 23:00:00 11,9 8,7 8,2 16,1 17,2 9 5 14 8 SSE 1015,3 55 0 0,0
16.10.2019 22:00:00 11,3 8,5 8,2 16,1 17,2 5 3 15 8 S 1015,2 54 0 0,0
16.10.2019 21:00:00 12,8 8,7 9,2 16,1 17,2 7 4 16 8 S 1015,0 53 0 0,0
16.10.2019 20:00:00 13,1 9,7 9,6 16,0 17,2 7 4 11 6 S 1015,1 38 0 0,0
16.10.2019 19:00:00 18,5 7,0 13,5 15,9 17,2 6 3 13 7 NNE 1013,9 60 46 0,0
16.10.2019 18:00:00 20,8 6,7 20,4 15,7 17,2 8 5 18 10 N 1013,4 48 44 0,0
16.10.2019 17:00:00 21,3 6,0 25,8 15,5 17,2 5 3 12 7 NE 1013,2 60 26 0,0
16.10.2019 16:00:00 21,4 6,9 27,1 15,3 17,2 4 2 18 10 E 1013,2 60 27 0,0
16.10.2019 15:00:00 21,2 6,3 25,7 15,2 17,2 4 2 16 9 SSE 1013,7 54 16 0,0
16.10.2019 14:00:00 21,1 6,2 29,1 15,1 17,2 5 3 17 9 NNW 1014,3 19 36 0,0
16.10.2019 13:00:00 20,5 5,7 25,2 15,1 17,3 6 3 14 8 ENE 1014,6 56 40 0,0
16.10.2019 12:00:00 20,2 7,2 16,9 15,1 17,2 3 2 13 7 S 1015,0 50 51 0,0
16.10.2019 11:00:00 16,6 7,5 10,9 15,2 17,2 8 5 16 9 SSE 1015,5 36 60 0,0

tt = Température de l'air
td = dewpoint
tt 5cm = Température de l'air 5cm
tt -20cm = Température de l'air -20cm
tt -100cm = Température de l'air -100cm
ff = Vitesse du vent
fx = gusts
dd = Direction du vent
ppp = reduced air pressure
vv = visibility
sd = Ensoleillement
rr = Quantités de précipitations

stations d'obs. à proximité